User: anonymous   Login
Location: *
(50.8512°N, 5.6907°E)
Time: 17:54:48
(UTC+00:00)
Language:

STARLINK-1237 - Orbit

View from above orbital plane
View from above orbital plane
View from above satellite
View from above satellite

Ground track
Ground track

The orbit data is extracted from the following two-line orbital elements,

1 45192U 20012Q   20185.50001157  .00009756  00000-0  68729-3 0  9993
2 45192  52.9991   2.5067 0001507 122.1062  18.0760 15.05609293 21134
Epoch (UTC): 03 July 2020 12:00:01
Eccentricity: 0.0001507
inclination: 52.9991°
perigee height: 548 km
apogee height: 550 km
right ascension of ascending node: 2.5067°
argument of perigee: 122.1062°
revolutions per day: 15.05609293
mean anomaly at epoch: 18.0760°
orbit number at epoch: 2113

The dashed part of the orbit path shows where the satellite is in the earth's shadow,  

DLR